Other Public Products
Issued by NWS Charleston, SC

Current Version | Previous Version | Graphics & Text | Print | Product List | Glossary On
Versions: 1 2 3 4 5 6 7 8 9 10 11 12 13 14 15 16 17 18 19 20 21 22 23 24 25 26 27 28 29 30 31 32 33 34 35 36 37 38 39 40 41 42 43 44 45 46 47 48 49 50
000 FPUS82 KCHS 240712 OPUCHS TEST...KCHS/KSAV Gateway Observations...TEST National Weather Service Charleston SC 200 AM EST FRI NOV 24 2017 NOTE: "fair" indicates few or no clouds below 12,000 feet with no significant weather and/or obstructions to visibility. SCZ050-WAZ558-NCZ071-TXZ119-213-PAZ071-DCZ001-FLZ074-172-MI076- NYZ176-178-MAZ016-IL014-TNZ027-NJZ106-GAZ044-MD014-240800- ...Gateway Observations for Charleston International... CITY SKY/WX TMP DP RH WIND PRES REMARKS Chas Airport MOCLDY 44 42 93 N10 29.98F Seattle CLOUDY 49 44 83 S15 29.97R Charlotte CLEAR 32 31 96 CALM 30.06R Dallas DFW PTCLDY 49 32 52 S8 29.99F Dallas Love PTCLDY 51 31 46 SE6 30.01F Philladelphia CLEAR 34 26 72 SW3 30.07S Wash National CLEAR 35 28 75 SW5 30.08S WCI 31 Baltimore CLEAR 28 25 88 CALM 30.05F Miami CLOUDY 73 68 84 S3 29.84S Detroit PTCLDY 32 25 75 SW6 29.94R WCI 26 Newark CLEAR 33 21 61 W5 30.04S WCI 29 Laguardia CLEAR 39 22 50 W6 30.03F WCI 35 J F K CLEAR 34 24 67 W6 30.05S WCI 29 Boston Logan CLEAR 34 21 59 W6 29.99R WCI 29 Ft. Lauderdale CLOUDY 73 72 96 W5 29.83S Chicago O`Hare CLEAR 33 26 75 S8 29.84F WCI 26 Chicago Midway CLEAR 35 28 75 S8 29.86F WCI 29 Houston Bush CLEAR 45 40 82 CALM 30.06F Houston Hobby PTCLDY 45 42 89 CALM 30.06F Nashville CLEAR 32 27 81 S3 30.05S Atlanta PTCLDY 45 39 79 E6 30.02S $$ GAZ044-118-TXZ119-213-NCZ071-DCZ001-MDZ014-506-PAZ021-071-NJZ106- NYZ176-178-MAZ106-OHZ011-021-055-MIZ076-KYZ091-ILZ014-INZ047- MNZ060-ONZ431-240800- ...Gateway Observations for Savannah International... CITY SKY/WX TMP DP RH WIND PRES REMARKS Savannah Arpt CLOUDY 46 43 89 N9 29.97F Atlanta PTCLDY 45 39 79 E6 30.02S Charlotte CLEAR 32 31 96 CALM 30.06R Dallas DFW PTCLDY 49 32 52 S8 29.99F Houston Bush CLEAR 45 40 82 CALM 30.06F Wash National CLEAR 35 28 75 SW5 30.08S WCI 31 Wash Dulles CLEAR 26 23 88 CALM 30.06S Baltimore CLEAR 28 25 88 CALM 30.05F Philadelphia CLEAR 34 26 72 SW3 30.07S Newark CLEAR 33 21 61 W5 30.04S WCI 29 Laguardia CLEAR 39 22 50 W6 30.03F WCI 35 J F K CLEAR 34 24 67 W6 30.05S WCI 29 Boston CLEAR 34 21 59 W6 29.99R WCI 29 Pittsburg CLEAR 29 23 78 S3 30.00F Akron CLEAR 29 20 69 S7 29.98F WCI 22 Cleveland CLEAR 34 25 69 S9 29.99F WCI 27 Cincinnati CLOUDY 29 27 92 S5 30.00S WCI 24 Columbus CLOUDY 27 24 89 CALM 30.01F Detroit PTCLDY 32 25 75 SW6 29.94R WCI 26 Chicago O`Hare CLEAR 33 26 75 S8 29.84F WCI 26 Minneapolis MOCLDY 48 36 63 S6 29.53F Indianapolis CLOUDY 31 23 72 S6 29.96F WCI 25 Toronto Canada CLOUDY 36 25 64 W9 29.91S WCI 29 $$

USA.gov is the U.S. government's official web portal to all federal, state and local government web resources and services.